E22ZMG-2 Weather Reports


time (UTC)temp
F
wind
direction
speed
knots
gust
knots
rain 1hr
in
rain 24hr
in
rain mn
in
humidity
%
barometer
mb
20260504205850 82 0 0.0 0.0 0.00 0.00 0.00 67 927.0
20260504204826 82 0 0.0 0.0 0.00 0.00 0.00 67 927.0
20260504203803 82 0 0.0 0.0 0.00 0.00 0.00 67 927.0
20260504202738 82 0 0.0 0.0 0.00 0.00 0.00 66 927.0
20260504201714 82 0 0.0 0.0 0.00 0.00 0.00 66 928.0
20260504200650 83 0 0.0 0.0 0.00 0.00 0.00 66 928.0
20260504195626 83 0 0.0 0.0 0.00 0.00 0.00 65 928.0
20260504194602 83 0 0.0 0.0 0.00 0.00 0.00 65 928.0
20260504193537 83 0 0.0 0.0 0.00 0.00 0.00 65 928.0
20260504192513 83 0 0.0 0.0 0.00 0.00 0.00 65 928.0
20260504191449 83 0 0.0 0.0 0.00 0.00 0.00 64 928.0
20260504190425 83 0 0.0 0.0 0.00 0.00 0.00 63 928.0
20260504185401 83 0 0.0 0.0 0.00 0.00 0.00 63 928.0
20260504184337 84 0 0.0 0.0 0.00 0.00 0.00 63 928.0
20260504183313 84 0 0.0 0.0 0.00 0.00 0.00 62 928.0
20260504182249 84 0 0.0 0.0 0.00 0.00 0.00 61 928.0
20260504181225 84 0 0.0 0.0 0.00 0.00 0.00 62 928.0
20260504180201 84 0 0.0 0.0 0.00 0.00 0.00 62 928.0
20260504175138 84 0 0.0 0.0 0.00 0.00 0.00 61 928.0
20260504174113 85 0 0.0 0.0 0.00 0.00 0.00 60 928.0
20260504173049 85 0 0.0 0.0 0.00 0.00 0.00 58 928.0
20260504172130 85 0 0.0 0.0 0.00 0.00 0.00 56 929.0
20260504171105 85 0 0.0 0.0 0.00 0.00 0.00 51 929.0
20260504150616 88 0 0.0 0.0 0.00 0.00 0.00 49 927.0
20260504140351 89 0 0.0 0.0 0.00 0.00 0.00 47 926.0
20260504130127 90 0 0.0 0.0 0.00 0.00 0.00 46 925.0
20260504110702 94 0 0.0 0.0 0.00 0.00 0.00 43 923.0
20260504100438 95 0 0.0 0.0 0.00 0.00 0.00 41 923.0
20260503224742 80 0 0.0 0.0 0.00 0.00 0.00 61 927.0
20260503223718 80 0 0.0 0.0 0.00 0.00 0.00 60 927.0
20260503222653 80 0 0.0 0.0 0.00 0.00 0.00 61 927.0
20260503221629 80 0 0.0 0.0 0.00 0.00 0.00 61 927.0
20260503221129 80 0 0.0 0.0 0.00 0.00 0.00 61 927.0
20260503220105 79 0 0.0 0.0 0.00 0.00 0.00 61 927.0
20260503215041 80 0 0.0 0.0 0.00 0.00 0.00 59 926.0
20260503214017 80 0 0.0 0.0 0.00 0.00 0.00 58 926.0
20260503212657 81 0 0.0 0.0 0.00 0.00 0.00 58 926.0
20260503211633 81 0 0.0 0.0 0.00 0.00 0.00 57 926.0
20260503210609 81 0 0.0 0.0 0.00 0.00 0.00 57 926.0